Bangor, ME

8:11 PM EDT on October 20, 2017 (GMT -0400)
Bangor International

Weather History for KBGR - August, 2013

Change the Weather History Date:

Thursday, August 15, 2013

  Actual Average Record
Temperature  
Mean Temperature 64 °F 68 °F  
Max Temperature 76 °F 79 °F 97 °F (1944)
Min Temperature 52 °F 56 °F 38 °F (1940)
Degree Days  
Heating Degree Days 1 1  
Month to date heating degree days 9 15  
Since 1 June heating degree days 117 145  
Since 1 July heating degree days 17 38  
Cooling Degree Days 0 3  
Month to date cooling degree days 16 59  
Year to date cooling degree days 266 249  
Since 1 June cooling degree days 258 243  
Growing Degree Days 14 (Base 50)    
Moisture  
Dew Point 49 °F    
Average Humidity 62    
Maximum Humidity 83    
Minimum Humidity 41    
Precipitation  
Precipitation 0.00 in 0.10 in 1.66 in (1981)
Month to date precipitation 3.26 1.55  
Year to date precipitation 23.75 24.82  
Snow  
Snow 0.00 in 0.00 in 0.00 in (2002)
Month to date snowfall 0.0 0.0  
Since 1 June snowfall 0.0 0.0  
Since 1 July snowfall 0.0 0.0  
Snow Depth 0.00 in    
Sea Level Pressure  
Sea Level Pressure 29.93 in    
Wind  
Wind Speed 7 mph (WSW)    
Max Wind Speed 15 mph    
Max Gust Speed 21 mph    
Visibility 10 miles    
Events      
T = Trace of Precipitation, MM = Missing Value Source: NWS Daily Summary

Daily Weather History Graph

Daily Weather History Graph

Search for Another Location

Airport or City:

Trip Planner

Search our weather history database for the weather conditions in past years. The results will help you decide how hot, cold, wet, or windy it might be!

Date:

Astronomy

Aug. 15, 2013 Rise Set
Actual Time 5:37 AM EDT 7:40 PM EDT
Civil Twilight 5:05 AM EDT 8:12 PM EDT
Nautical Twilight 4:26 AM EDT 8:51 PM EDT
Astronomical Twilight 3:43 AM EDT 9:34 PM EDT
Moon 2:59 PM EDT (8/15) No Moon Set
Length of Visible Light 15h 06m
Length of Day
14h 03m
Waxing Gibbous, 64% of the Moon is Illuminated
Aug 15
Waxing Gibbous
Aug 20
Full
Aug 28
Last Quarter
Sep 5
New
Sep 12
First Quarter

Hourly Weather History & Observations

Time (EDT) Temp. Dew Point Humidity Pressure Visibility Wind Dir Wind Speed Gust Speed Precip Events Conditions
12:53 AM 55.9 °F 48.0 °F 75% 29.83 in 10.0 mi West 6.9 mph - N/A   Clear
1:53 AM 55.0 °F 48.0 °F 77% 29.84 in 10.0 mi West 5.8 mph - N/A   Clear
2:53 AM 55.0 °F 48.0 °F 77% 29.86 in 10.0 mi West 8.1 mph - N/A   Clear
3:53 AM 54.0 °F 46.9 °F 77% 29.88 in 10.0 mi West 6.9 mph - N/A   Clear
4:53 AM 53.1 °F 46.9 °F 80% 29.89 in 10.0 mi West 6.9 mph - N/A   Partly Cloudy
5:53 AM 52.0 °F 46.9 °F 83% 29.91 in 10.0 mi Calm Calm - N/A   Scattered Clouds
6:53 AM 55.0 °F 48.9 °F 80% 29.94 in 10.0 mi SSW 3.5 mph - N/A   Scattered Clouds
7:53 AM 60.1 °F 50.0 °F 69% 29.96 in 10.0 mi Variable 6.9 mph - N/A   Partly Cloudy
8:53 AM 64.0 °F 50.0 °F 60% 29.97 in 10.0 mi WSW 10.4 mph - N/A   Partly Cloudy
9:53 AM 66.0 °F 50.0 °F 56% 29.98 in 10.0 mi SW 10.4 mph - N/A   Partly Cloudy
10:53 AM 69.1 °F 50.0 °F 51% 29.97 in 10.0 mi WSW 12.7 mph 20.7 mph N/A   Partly Cloudy
11:53 AM 70.0 °F 50.0 °F 49% 29.98 in 10.0 mi WSW 12.7 mph 19.6 mph N/A   Scattered Clouds
12:53 PM 69.1 °F 48.9 °F 49% 29.97 in 10.0 mi West 10.4 mph 17.3 mph N/A   Scattered Clouds
1:53 PM 73.0 °F 50.0 °F 44% 29.96 in 10.0 mi WSW 15.0 mph 19.6 mph N/A   Scattered Clouds
2:53 PM 73.9 °F 50.0 °F 43% 29.95 in 10.0 mi WSW 9.2 mph - N/A   Scattered Clouds
3:53 PM 75.0 °F 50.0 °F 41% 29.95 in 10.0 mi WSW 8.1 mph - N/A   Scattered Clouds
4:53 PM 73.9 °F 50.0 °F 43% 29.95 in 10.0 mi SW 8.1 mph - N/A   Scattered Clouds
5:53 PM 73.0 °F 50.0 °F 44% 29.95 in 10.0 mi SW 9.2 mph - N/A   Partly Cloudy
6:53 PM 71.1 °F 51.1 °F 49% 29.97 in 10.0 mi SW 5.8 mph - N/A   Partly Cloudy
7:53 PM 64.9 °F 54.0 °F 68% 29.99 in 10.0 mi Calm Calm - N/A   Partly Cloudy